Time,TemperatureF,DewpointF,PressureIn,WindDirection,WindDirectionDegrees,WindSpeedMPH,WindSpeedGustMPH,Humidity,HourlyPrecipIn,Conditions,Clouds,dailyrainin,SoftwareType,DateUTC
2013-03-18 00:00:00,33.8,20.2,-100.00,North,3,5.8,6.7,57,-99.99,,,0.00,LWC V2.10 B1813,2013-03-18 04:00:00,
2013-03-18 00:05:00,33.8,20.2,-100.00,North,2,7.6,8.1,57,-99.99,,,0.00,LWC V2.10 B1813,2013-03-18 04:05:00,
2013-03-18 00:06:00,33.8,19.8,-100.00,NNE,20,8.1,8.7,56,-99.99,,,0.00,LWC V2.10 B1813,2013-03-18 04:06:00,
2013-03-18 00:11:00,33.8,20.2,-100.00,NNE,18,8.1,8.3,57,-99.99,,,0.00,LWC V2.10 B1813,2013-03-18 04:11:00,
2013-03-18 00:16:00,33.8,20.2,-100.00,North,7,6.7,8.7,57,-99.99,,,0.00,LWC V2.10 B1813,2013-03-18 04:16:00,
2013-03-18 00:21:00,33.6,20.4,-100.00,North,357,7.6,8.3,58,-99.99,,,0.00,LWC V2.10 B1813,2013-03-18 04:21:00,
2013-03-18 00:26:00,33.6,20.4,-100.00,North,1,7.6,7.6,58,-99.99,,,0.00,LWC V2.10 B1813,2013-03-18 04:26:00,
2013-03-18 00:31:00,33.6,20.4,-100.00,North,3,7.6,8.7,58,-99.99,,,0.00,LWC V2.10 B1813,2013-03-18 04:31:00,
2013-03-18 00:36:00,33.6,20.8,-100.00,NNE,14,7.6,8.3,59,-99.99,,,0.00,LWC V2.10 B1813,2013-03-18 04:36:00,
2013-03-18 00:41:00,33.4,20.3,-100.00,North,10,8.3,8.3,58,-99.99,,,0.00,LWC V2.10 B1813,2013-03-18 04:41:00,
2013-03-18 00:46:00,33.4,20.7,-100.00,NNE,14,7.6,8.7,59,-99.99,,,0.00,LWC V2.10 B1813,2013-03-18 04:46:00,
2013-03-18 00:51:00,33.4,20.3,-100.00,North,7,7.6,10.1,58,-99.99,,,0.00,LWC V2.10 B1813,2013-03-18 04:51:00,
2013-03-18 00:56:00,33.6,20.4,-100.00,NNE,14,8.1,10.1,58,-99.99,,,0.00,LWC V2.10 B1813,2013-03-18 04:56:00,
2013-03-18 01:01:00,33.4,20.3,-100.00,NNE,14,8.1,8.3,58,-99.99,,,0.00,LWC V2.10 B1813,2013-03-18 05:01:00,
2013-03-18 01:06:00,33.4,20.3,-100.00,North,10,8.7,8.7,58,-99.99,,,0.00,LWC V2.10 B1813,2013-03-18 05:06:00,
2013-03-18 01:11:00,33.4,20.3,-100.00,North,7,7.6,8.7,58,-99.99,,,0.00,LWC V2.10 B1813,2013-03-18 05:11:00,
2013-03-18 01:16:00,33.4,20.7,-100.00,North,9,8.1,8.1,59,-99.99,,,0.00,LWC V2.10 B1813,2013-03-18 05:16:00,
2013-03-18 01:21:00,33.3,20.5,-100.00,North,9,8.1,8.7,59,-99.99,,,0.00,LWC V2.10 B1813,2013-03-18 05:21:00,
2013-03-18 01:26:00,33.3,21.3,-100.00,NNE,17,10.1,10.1,61,-99.99,,,0.00,LWC V2.10 B1813,2013-03-18 05:26:00,
2013-03-18 01:32:00,33.1,22.2,-100.00,North,6,7.6,8.7,64,-99.99,,,0.00,LWC V2.10 B1813,2013-03-18 05:32:00,
2013-03-18 01:37:00,32.9,22.8,-100.00,NNE,16,7.6,8.3,66,-99.99,,,0.00,LWC V2.10 B1813,2013-03-18 05:37:00,
2013-03-18 01:42:00,32.7,23.3,-100.00,NNE,16,7.6,8.1,68,-99.99,,,0.00,LWC V2.10 B1813,2013-03-18 05:42:00,
2013-03-18 01:47:00,32.7,24.0,-100.00,North,4,8.3,10.5,70,-99.99,,,0.00,LWC V2.10 B1813,2013-03-18 05:47:00,
2013-03-18 01:52:00,32.5,24.2,-100.00,NNE,17,8.1,8.1,71,-99.99,,,0.00,LWC V2.10 B1813,2013-03-18 05:52:00,
2013-03-18 01:57:00,32.5,24.5,-100.00,North,11,7.6,8.3,72,-99.99,,,0.00,LWC V2.10 B1813,2013-03-18 05:57:00,
2013-03-18 02:02:00,32.5,25.2,-100.00,North,9,7.6,7.6,74,-99.99,,,0.00,LWC V2.10 B1813,2013-03-18 06:02:00,
2013-03-18 02:07:00,32.4,25.3,-100.00,North,7,6.3,8.1,75,-99.99,,,0.00,LWC V2.10 B1813,2013-03-18 06:07:00,
2013-03-18 02:12:00,32.2,25.8,-100.00,North,6,5.8,6.3,77,-99.99,,,0.00,LWC V2.10 B1813,2013-03-18 06:12:00,
2013-03-18 02:17:00,32.2,26.1,-100.00,NNE,15,7.6,7.6,78,-99.99,,,0.00,LWC V2.10 B1813,2013-03-18 06:17:00,
2013-03-18 02:22:00,32.2,26.1,-100.00,NNE,16,6.3,7.6,78,-99.99,,,0.00,LWC V2.10 B1813,2013-03-18 06:22:00,
2013-03-18 02:27:00,32.2,26.4,-100.00,North,9,5.8,8.7,79,-99.99,,,0.00,LWC V2.10 B1813,2013-03-18 06:27:00,
2013-03-18 02:32:00,32.2,26.7,-100.00,NNE,22,5.8,7.6,80,-99.99,,,0.00,LWC V2.10 B1813,2013-03-18 06:32:00,
2013-03-18 02:37:00,32.0,26.8,-100.00,NNE,12,7.6,8.1,81,-99.99,,,0.00,LWC V2.10 B1813,2013-03-18 06:37:00,
2013-03-18 02:42:00,32.0,27.1,-100.00,North,349,6.3,6.7,82,-99.99,,,0.00,LWC V2.10 B1813,2013-03-18 06:42:00,
2013-03-18 02:47:00,32.0,27.1,-100.00,North,11,6.3,7.6,82,-99.99,,,0.00,LWC V2.10 B1813,2013-03-18 06:47:00,
2013-03-18 02:52:00,32.0,27.4,-100.00,NNE,14,5.4,7.6,83,-99.99,,,0.00,LWC V2.10 B1813,2013-03-18 06:52:00,
2013-03-18 02:57:00,31.8,27.3,-100.00,North,357,0.0,0.0,83,-99.99,,,0.00,LWC V2.10 B1813,2013-03-18 06:57:00,
2013-03-18 03:02:00,32.0,28.0,-100.00,NNE,15,0.0,0.0,85,-99.99,,,0.00,LWC V2.10 B1813,2013-03-18 07:02:00,
2013-03-18 03:07:00,31.8,27.8,-100.00,North,9,0.0,0.0,85,-99.99,,,0.00,LWC V2.10 B1813,2013-03-18 07:07:00,
2013-03-18 03:12:00,31.8,27.8,-100.00,North,11,0.0,0.0,85,-99.99,,,0.00,LWC V2.10 B1813,2013-03-18 07:12:00,
2013-03-18 03:17:00,32.0,28.3,-100.00,NNE,22,0.0,0.0,86,-99.99,,,0.00,LWC V2.10 B1813,2013-03-18 07:17:00,
2013-03-18 03:22:00,31.8,28.4,-100.00,NNE,15,0.0,0.0,87,-99.99,,,0.00,LWC V2.10 B1813,2013-03-18 07:22:00,
2013-03-18 03:27:00,32.0,28.6,-100.00,NNE,15,0.0,0.0,87,-99.99,,,0.00,LWC V2.10 B1813,2013-03-18 07:27:00,
2013-03-18 03:32:00,32.2,28.8,-100.00,NNE,15,0.0,0.0,87,-99.99,,,0.00,LWC V2.10 B1813,2013-03-18 07:32:00,
2013-03-18 03:37:00,32.2,29.0,-100.00,NNE,15,0.0,0.0,88,-99.99,,,0.00,LWC V2.10 B1813,2013-03-18 07:37:00,
2013-03-18 03:42:00,32.0,28.9,-100.00,NNE,15,0.0,0.0,88,-99.99,,,0.00,LWC V2.10 B1813,2013-03-18 07:42:00,
2013-03-18 03:47:00,32.0,28.9,-100.00,NNE,15,0.0,0.0,88,-99.99,,,0.00,LWC V2.10 B1813,2013-03-18 07:47:00,
2013-03-18 03:52:00,32.2,29.0,-100.00,NNE,15,0.0,0.0,88,-99.99,,,0.00,LWC V2.10 B1813,2013-03-18 07:52:00,
2013-03-18 03:57:00,32.2,29.3,-100.00,NNE,15,0.0,0.0,89,-99.99,,,0.00,LWC V2.10 B1813,2013-03-18 07:57:00,
2013-03-18 04:02:00,32.2,29.3,-100.00,NNE,15,0.0,0.0,89,-99.99,,,0.00,LWC V2.10 B1813,2013-03-18 08:02:00,
2013-03-18 04:07:00,32.4,29.5,-100.00,NNE,15,0.0,0.0,89,-99.99,,,0.00,LWC V2.10 B1813,2013-03-18 08:07:00,
2013-03-18 04:12:00,32.2,29.3,-100.00,NNE,15,0.0,0.0,89,-99.99,,,0.00,LWC V2.10 B1813,2013-03-18 08:12:00,
2013-03-18 04:17:00,32.2,29.6,-100.00,NNE,15,0.0,0.0,90,-99.99,,,0.00,LWC V2.10 B1813,2013-03-18 08:17:00,
2013-03-18 04:22:00,32.4,29.8,-100.00,NNE,15,0.0,0.0,90,-99.99,,,0.00,LWC V2.10 B1813,2013-03-18 08:22:00,
2013-03-18 04:27:00,32.5,29.9,-100.00,NNE,15,0.0,0.0,90,-99.99,,,0.00,LWC V2.10 B1813,2013-03-18 08:27:00,
2013-03-18 04:32:00,32.5,29.9,-100.00,NNE,15,0.0,0.0,90,-99.99,,,0.00,LWC V2.10 B1813,2013-03-18 08:32:00,
2013-03-18 04:37:00,32.5,29.9,-100.00,NNE,15,0.0,0.0,90,-99.99,,,0.00,LWC V2.10 B1813,2013-03-18 08:37:00,
2013-03-18 04:42:00,32.5,29.9,-100.00,NNE,15,0.0,0.0,90,-99.99,,,0.00,LWC V2.10 B1813,2013-03-18 08:42:00,
2013-03-18 04:47:00,32.5,30.2,-100.00,NNE,15,0.0,0.0,91,-99.99,,,0.00,LWC V2.10 B1813,2013-03-18 08:47:00,
2013-03-18 04:52:00,32.5,30.2,-100.00,NNE,15,0.0,0.0,91,-99.99,,,0.00,LWC V2.10 B1813,2013-03-18 08:52:00,
2013-03-18 04:57:00,32.5,30.5,-100.00,NNE,15,0.0,0.0,92,-99.99,,,0.00,LWC V2.10 B1813,2013-03-18 08:57:00,
2013-03-18 05:02:00,32.7,30.7,-100.00,NNE,15,0.0,0.0,92,-99.99,,,0.00,LWC V2.10 B1813,2013-03-18 09:02:00,
2013-03-18 05:07:00,32.7,30.7,-100.00,NNE,15,0.0,0.0,92,-99.99,,,0.00,LWC V2.10 B1813,2013-03-18 09:07:00,
2013-03-18 05:12:00,32.7,30.9,-100.00,NNE,15,0.0,0.0,93,-99.99,,,0.00,LWC V2.10 B1813,2013-03-18 09:12:00,
2013-03-18 05:17:00,32.7,30.9,-100.00,NNE,15,0.0,0.0,93,-99.99,,,0.00,LWC V2.10 B1813,2013-03-18 09:17:00,
2013-03-18 05:22:00,32.7,30.9,-100.00,NNE,15,0.0,0.0,93,-99.99,,,0.00,LWC V2.10 B1813,2013-03-18 09:22:00,
2013-03-18 05:27:00,32.9,31.1,-100.00,NNE,15,0.0,0.0,93,-99.99,,,0.00,LWC V2.10 B1813,2013-03-18 09:27:00,
2013-03-18 05:32:00,32.9,31.1,-100.00,NNE,15,0.0,0.0,93,-99.99,,,0.00,LWC V2.10 B1813,2013-03-18 09:32:00,
2013-03-18 05:37:00,32.9,31.4,-100.00,NNE,15,0.0,0.0,94,-99.99,,,0.00,LWC V2.10 B1813,2013-03-18 09:37:00,
2013-03-18 05:42:00,32.9,31.4,-100.00,NNE,15,0.0,0.0,94,-99.99,,,0.00,LWC V2.10 B1813,2013-03-18 09:42:00,
2013-03-18 05:47:00,33.1,31.5,-100.00,NNE,15,0.0,0.0,94,-99.99,,,0.00,LWC V2.10 B1813,2013-03-18 09:47:00,
2013-03-18 05:52:00,33.1,31.5,-100.00,NNE,15,0.0,0.0,94,-99.99,,,0.00,LWC V2.10 B1813,2013-03-18 09:52:00,
2013-03-18 05:57:00,33.1,31.5,-100.00,NNE,15,0.0,0.0,94,-99.99,,,0.00,LWC V2.10 B1813,2013-03-18 09:57:00,
2013-03-18 06:02:00,33.1,31.5,-100.00,NNE,15,0.0,0.0,94,-99.99,,,0.00,LWC V2.10 B1813,2013-03-18 10:02:00,
2013-03-18 06:07:00,33.1,31.8,-100.00,NNE,15,0.0,0.0,95,-99.99,,,0.00,LWC V2.10 B1813,2013-03-18 10:07:00,
2013-03-18 06:12:00,33.3,32.0,-100.00,NNE,15,0.0,0.0,95,-99.99,,,0.00,LWC V2.10 B1813,2013-03-18 10:12:00,
2013-03-18 06:17:00,33.3,32.0,-100.00,NNE,15,0.0,0.0,95,-99.99,,,0.00,LWC V2.10 B1813,2013-03-18 10:17:00,
2013-03-18 06:22:00,33.3,32.0,-100.00,NNE,15,0.0,0.0,95,-99.99,,,0.00,LWC V2.10 B1813,2013-03-18 10:22:00,
2013-03-18 06:27:00,33.3,32.0,-100.00,NNE,15,0.0,0.0,95,-99.99,,,0.00,LWC V2.10 B1813,2013-03-18 10:27:00,
2013-03-18 06:32:00,33.3,32.0,-100.00,NNE,15,0.0,0.0,95,-99.99,,,0.00,LWC V2.10 B1813,2013-03-18 10:32:00,
2013-03-18 06:37:00,33.3,32.0,-100.00,NNE,15,0.0,0.0,95,-99.99,,,0.00,LWC V2.10 B1813,2013-03-18 10:37:00,
2013-03-18 06:42:00,33.4,32.2,-100.00,NNE,15,0.0,0.0,95,-99.99,,,0.00,LWC V2.10 B1813,2013-03-18 10:42:00,
2013-03-18 06:47:00,33.4,32.4,-100.00,NNE,15,0.0,0.0,96,-99.99,,,0.00,LWC V2.10 B1813,2013-03-18 10:47:00,
2013-03-18 06:52:00,33.6,32.6,-100.00,NNE,15,0.0,0.0,96,-99.99,,,0.00,LWC V2.10 B1813,2013-03-18 10:52:00,
2013-03-18 06:57:00,33.6,32.6,-100.00,NNE,15,0.0,0.0,96,-99.99,,,0.00,LWC V2.10 B1813,2013-03-18 10:57:00,
2013-03-18 07:02:00,33.8,32.5,-100.00,NNE,15,0.0,0.0,95,-99.99,,,0.00,LWC V2.10 B1813,2013-03-18 11:02:00,
2013-03-18 07:07:00,33.8,32.5,-100.00,NNE,15,0.0,0.0,95,-99.99,,,0.00,LWC V2.10 B1813,2013-03-18 11:07:00,
2013-03-18 07:12:00,33.8,32.8,-100.00,NNE,15,0.0,0.0,96,-99.99,,,0.00,LWC V2.10 B1813,2013-03-18 11:12:00,
2013-03-18 07:17:00,33.8,32.8,-100.00,NNE,15,0.0,0.0,96,-99.99,,,0.00,LWC V2.10 B1813,2013-03-18 11:17:00,
2013-03-18 07:22:00,33.8,32.8,-100.00,NNE,15,0.0,0.0,96,-99.99,,,0.00,LWC V2.10 B1813,2013-03-18 11:22:00,
2013-03-18 07:27:00,34.0,33.0,-100.00,NNE,15,0.0,0.0,96,-99.99,,,0.00,LWC V2.10 B1813,2013-03-18 11:27:00,
2013-03-18 07:32:00,34.0,33.0,-100.00,NNE,15,0.0,0.0,96,-99.99,,,0.00,LWC V2.10 B1813,2013-03-18 11:32:00,
2013-03-18 07:38:00,34.0,33.0,-100.00,NNE,15,0.0,0.0,96,-99.99,,,0.00,LWC V2.10 B1813,2013-03-18 11:38:00,
2013-03-18 07:43:00,34.0,33.0,-100.00,NNE,15,0.0,0.0,96,-99.99,,,0.00,LWC V2.10 B1813,2013-03-18 11:43:00,
2013-03-18 07:48:00,34.2,33.1,-100.00,NNE,15,0.0,0.0,96,-99.99,,,0.00,LWC V2.10 B1813,2013-03-18 11:48:00,
2013-03-18 07:53:00,34.2,33.1,-100.00,NNE,15,0.0,0.0,96,-99.99,,,0.00,LWC V2.10 B1813,2013-03-18 11:53:00,
2013-03-18 07:58:00,34.3,33.3,-100.00,NNE,16,0.0,0.0,96,-99.99,,,0.00,LWC V2.10 B1813,2013-03-18 11:58:00,
2013-03-18 08:03:00,34.3,33.3,-100.00,NNE,20,0.0,0.0,96,-99.99,,,0.00,LWC V2.10 B1813,2013-03-18 12:03:00,
2013-03-18 08:08:00,34.3,33.3,-100.00,NNE,24,0.0,0.0,96,-99.99,,,0.00,LWC V2.10 B1813,2013-03-18 12:08:00,
2013-03-18 08:13:00,34.3,33.3,-100.00,NNE,27,0.0,0.0,96,-99.99,,,0.00,LWC V2.10 B1813,2013-03-18 12:13:00,
2013-03-18 08:18:00,34.5,33.5,-100.00,NE,38,0.0,0.0,96,-99.99,,,0.00,LWC V2.10 B1813,2013-03-18 12:18:00,
2013-03-18 08:23:00,34.5,33.8,-100.00,NNE,19,0.0,0.0,97,-99.99,,,0.00,LWC V2.10 B1813,2013-03-18 12:23:00,
2013-03-18 08:28:00,34.5,33.8,-100.00,NNE,12,0.0,0.0,97,-99.99,,,0.00,LWC V2.10 B1813,2013-03-18 12:28:00,
2013-03-18 08:33:00,34.7,33.9,-100.00,North,8,0.0,0.0,97,-99.99,,,0.00,LWC V2.10 B1813,2013-03-18 12:33:00,
2013-03-18 08:38:00,34.9,34.1,-100.00,NNE,24,0.0,0.0,97,-99.99,,,0.00,LWC V2.10 B1813,2013-03-18 12:38:00,
2013-03-18 08:43:00,34.9,34.1,-100.00,NNE,23,0.0,0.0,97,-99.99,,,0.00,LWC V2.10 B1813,2013-03-18 12:43:00,
2013-03-18 08:48:00,35.1,34.3,-100.00,NNE,27,0.0,0.0,97,-99.99,,,0.00,LWC V2.10 B1813,2013-03-18 12:48:00,
2013-03-18 08:53:00,35.2,34.5,-100.00,NNE,30,0.0,0.0,97,-99.99,,,0.00,LWC V2.10 B1813,2013-03-18 12:53:00,
2013-03-18 08:58:00,35.4,34.7,-100.00,North,357,0.0,0.0,97,-99.99,,,0.00,LWC V2.10 B1813,2013-03-18 12:58:00,
2013-03-18 09:03:00,35.6,34.8,-100.00,NNE,29,0.0,0.0,97,-99.99,,,0.00,LWC V2.10 B1813,2013-03-18 13:03:00,
2013-03-18 09:08:00,35.8,35.0,-100.00,NE,48,0.0,0.0,97,-99.99,,,0.00,LWC V2.10 B1813,2013-03-18 13:08:00,
2013-03-18 09:13:00,36.0,35.2,-100.00,ENE,74,0.0,0.0,97,-99.99,,,0.00,LWC V2.10 B1813,2013-03-18 13:13:00,
2013-03-18 09:18:00,36.0,35.2,-100.00,NNW,344,0.0,0.0,97,-99.99,,,0.00,LWC V2.10 B1813,2013-03-18 13:18:00,
2013-03-18 09:23:00,36.1,35.4,-100.00,ENE,71,0.0,0.0,97,-99.99,,,0.00,LWC V2.10 B1813,2013-03-18 13:23:00,
2013-03-18 09:28:00,36.3,35.6,-100.00,NNE,32,0.0,0.0,97,-99.99,,,0.00,LWC V2.10 B1813,2013-03-18 13:28:00,
2013-03-18 09:33:00,36.7,35.9,-100.00,NNE,30,0.0,0.0,97,-99.99,,,0.00,LWC V2.10 B1813,2013-03-18 13:33:00,
2013-03-18 09:38:00,37.0,36.3,-100.00,ENE,62,0.0,0.0,97,-99.99,,,0.00,LWC V2.10 B1813,2013-03-18 13:38:00,
2013-03-18 09:43:00,37.4,36.6,-100.00,ENE,60,0.0,0.0,97,-99.99,,,0.00,LWC V2.10 B1813,2013-03-18 13:43:00,
2013-03-18 09:48:00,37.8,37.0,-100.00,ENE,61,3.6,3.6,97,-99.99,,,0.00,LWC V2.10 B1813,2013-03-18 13:48:00,
2013-03-18 09:53:00,37.9,37.2,-100.00,NE,54,3.6,4.0,97,-99.99,,,0.00,LWC V2.10 B1813,2013-03-18 13:53:00,
2013-03-18 09:58:00,38.3,37.5,-100.00,East,97,2.2,6.3,97,-99.99,,,0.00,LWC V2.10 B1813,2013-03-18 13:58:00,
2013-03-18 10:03:00,38.5,37.7,-100.00,East,92,5.8,6.3,97,-99.99,,,0.00,LWC V2.10 B1813,2013-03-18 14:03:00,
2013-03-18 10:08:00,38.7,37.9,-100.00,NNE,29,3.6,6.3,97,-99.99,,,0.00,LWC V2.10 B1813,2013-03-18 14:08:00,
2013-03-18 10:13:00,38.8,38.1,-100.00,NE,39,5.4,5.4,97,-99.99,,,0.00,LWC V2.10 B1813,2013-03-18 14:13:00,
2013-03-18 10:18:00,38.8,38.1,-100.00,NE,36,4.0,5.8,97,-99.99,,,0.00,LWC V2.10 B1813,2013-03-18 14:18:00,
2013-03-18 10:23:00,39.0,38.2,-100.00,ESE,118,3.6,6.3,97,-99.99,,,0.00,LWC V2.10 B1813,2013-03-18 14:23:00,
2013-03-18 10:28:00,39.2,38.4,-100.00,ENE,66,3.6,7.6,97,-99.99,,,0.00,LWC V2.10 B1813,2013-03-18 14:28:00,
2013-03-18 10:33:00,39.4,38.3,-100.00,East,99,2.7,5.8,96,-99.99,,,0.00,LWC V2.10 B1813,2013-03-18 14:33:00,
2013-03-18 10:38:00,39.6,38.5,-100.00,East,84,3.1,4.0,96,-99.99,,,0.00,LWC V2.10 B1813,2013-03-18 14:38:00,
2013-03-18 10:43:00,39.6,38.5,-100.00,East,93,5.4,5.4,96,-99.99,,,0.00,LWC V2.10 B1813,2013-03-18 14:43:00,
2013-03-18 10:48:00,39.7,38.7,-100.00,SE,127,6.7,6.7,96,-99.99,,,0.00,LWC V2.10 B1813,2013-03-18 14:48:00,
2013-03-18 10:53:00,39.9,38.9,-100.00,East,98,3.6,6.7,96,-99.99,,,0.00,LWC V2.10 B1813,2013-03-18 14:53:00,
2013-03-18 10:58:00,40.1,39.1,-100.00,ESE,119,2.2,5.8,96,-99.99,,,0.00,LWC V2.10 B1813,2013-03-18 14:58:00,
2013-03-18 11:03:00,40.3,39.2,-100.00,East,95,4.9,8.1,96,-99.99,,,0.00,LWC V2.10 B1813,2013-03-18 15:03:00,
2013-03-18 11:08:00,40.5,39.4,-100.00,SE,132,0.0,5.4,96,-99.99,,,0.00,LWC V2.10 B1813,2013-03-18 15:08:00,
2013-03-18 11:13:00,40.5,39.4,-100.00,SE,131,4.0,5.4,96,-99.99,,,0.00,LWC V2.10 B1813,2013-03-18 15:13:00,
2013-03-18 11:18:00,40.6,39.6,-100.00,ESE,103,6.3,6.3,96,-99.99,,,0.00,LWC V2.10 B1813,2013-03-18 15:18:00,
2013-03-18 11:23:00,40.6,39.6,-100.00,East,81,4.0,8.1,96,-99.99,,,0.00,LWC V2.10 B1813,2013-03-18 15:23:00,
2013-03-18 11:28:00,41.0,39.7,-100.00,East,83,2.2,10.5,95,-99.99,,,0.00,LWC V2.10 B1813,2013-03-18 15:28:00,
2013-03-18 11:33:00,41.2,39.9,-100.00,ESE,110,2.7,5.4,95,-99.99,,,0.00,LWC V2.10 B1813,2013-03-18 15:33:00,
2013-03-18 11:38:00,41.4,40.0,-100.00,SE,124,3.6,6.3,95,-99.99,,,0.00,LWC V2.10 B1813,2013-03-18 15:38:00,
2013-03-18 11:43:00,41.5,40.2,-100.00,East,83,4.9,8.7,95,-99.99,,,0.00,LWC V2.10 B1813,2013-03-18 15:43:00,
2013-03-18 11:48:00,41.9,40.6,-100.00,ESE,123,5.4,8.1,95,-99.99,,,0.00,LWC V2.10 B1813,2013-03-18 15:48:00,
2013-03-18 11:53:00,42.1,40.8,-100.00,SE,146,8.7,8.7,95,-99.99,,,0.00,LWC V2.10 B1813,2013-03-18 15:53:00,
2013-03-18 11:58:00,42.1,40.5,-100.00,SE,127,8.1,10.1,94,-99.99,,,0.00,LWC V2.10 B1813,2013-03-18 15:58:00,
2013-03-18 12:03:00,42.1,40.5,-100.00,SE,134,5.8,8.1,94,-99.99,,,0.00,LWC V2.10 B1813,2013-03-18 16:03:00,
2013-03-18 12:08:00,42.1,40.5,-100.00,SSE,147,8.3,8.3,94,-99.99,,,0.00,LWC V2.10 B1813,2013-03-18 16:08:00,
2013-03-18 12:13:00,42.1,40.5,-100.00,SE,132,5.4,8.3,94,-99.99,,,0.00,LWC V2.10 B1813,2013-03-18 16:13:00,
2013-03-18 12:18:00,42.1,40.5,-100.00,ESE,108,3.6,5.8,94,-99.99,,,0.00,LWC V2.10 B1813,2013-03-18 16:18:00,
2013-03-18 12:23:00,42.3,40.7,-100.00,ESE,118,4.9,6.3,94,-99.99,,,0.00,LWC V2.10 B1813,2013-03-18 16:23:00,
2013-03-18 12:28:00,42.3,40.7,-100.00,ESE,119,3.6,6.3,94,-99.99,,,0.00,LWC V2.10 B1813,2013-03-18 16:28:00,
2013-03-18 12:33:00,42.3,40.7,-100.00,SE,131,5.4,10.5,94,-99.99,,,0.00,LWC V2.10 B1813,2013-03-18 16:33:00,
2013-03-18 12:38:00,42.3,40.7,-100.00,ESE,104,4.9,8.3,94,-99.99,,,0.00,LWC V2.10 B1813,2013-03-18 16:38:00,
2013-03-18 12:43:00,42.4,40.8,-100.00,East,96,3.1,7.6,94,-99.99,,,0.00,LWC V2.10 B1813,2013-03-18 16:43:00,
2013-03-18 12:48:00,42.8,41.2,-100.00,ESE,109,4.0,5.4,94,-99.99,,,0.00,LWC V2.10 B1813,2013-03-18 16:48:00,
2013-03-18 12:53:00,43.2,41.6,-100.00,SE,127,7.6,7.6,94,-99.99,,,0.00,LWC V2.10 B1813,2013-03-18 16:53:00,
2013-03-18 12:58:00,43.5,41.9,-100.00,ESE,116,5.8,5.8,94,-99.99,,,0.00,LWC V2.10 B1813,2013-03-18 16:58:00,
2013-03-18 13:03:00,43.9,42.3,-100.00,SE,140,6.7,7.6,94,-99.99,,,0.00,LWC V2.10 B1813,2013-03-18 17:03:00,
2013-03-18 13:08:00,44.1,42.4,-100.00,SE,140,5.8,8.7,94,-99.99,,,0.00,LWC V2.10 B1813,2013-03-18 17:08:00,
2013-03-18 13:13:00,44.4,42.8,-100.00,East,88,5.8,10.5,94,-99.99,,,0.00,LWC V2.10 B1813,2013-03-18 17:13:00,
2013-03-18 13:18:00,44.6,42.7,-100.00,ESE,123,6.7,11.4,93,-99.99,,,0.00,LWC V2.10 B1813,2013-03-18 17:18:00,
2013-03-18 13:23:00,44.8,42.9,-100.00,SE,128,8.1,8.1,93,-99.99,,,0.00,LWC V2.10 B1813,2013-03-18 17:23:00,
2013-03-18 13:28:00,44.6,42.7,-100.00,SE,128,8.3,8.7,93,-99.99,,,0.00,LWC V2.10 B1813,2013-03-18 17:28:00,
2013-03-18 13:33:00,44.8,42.9,-100.00,ESE,113,6.7,8.3,93,-99.99,,,0.00,LWC V2.10 B1813,2013-03-18 17:33:00,
2013-03-18 13:38:00,44.8,42.9,-100.00,SE,140,6.3,6.3,93,-99.99,,,0.00,LWC V2.10 B1813,2013-03-18 17:38:00,
2013-03-18 13:43:00,44.8,42.9,-100.00,SSE,154,8.1,8.1,93,-99.99,,,0.00,LWC V2.10 B1813,2013-03-18 17:43:00,
2013-03-18 13:48:00,44.8,42.9,-100.00,NNE,24,6.3,6.3,93,-99.99,,,0.00,LWC V2.10 B1813,2013-03-18 17:48:00,
2013-03-18 13:53:00,45.0,43.1,-100.00,SE,143,4.0,8.1,93,-99.99,,,0.00,LWC V2.10 B1813,2013-03-18 17:53:00,
2013-03-18 13:58:00,45.3,43.4,-100.00,SSE,164,6.3,6.3,93,-99.99,,,0.00,LWC V2.10 B1813,2013-03-18 17:58:00,
2013-03-18 14:03:00,45.5,43.6,-100.00,SSE,152,8.1,9.2,93,-99.99,,,0.00,LWC V2.10 B1813,2013-03-18 18:03:00,
2013-03-18 14:08:00,45.9,44.0,-100.00,ESE,111,5.4,9.6,93,-99.99,,,0.00,LWC V2.10 B1813,2013-03-18 18:08:00,
2013-03-18 14:13:00,46.0,43.8,-100.00,SE,140,8.3,10.5,92,-99.99,,,0.00,LWC V2.10 B1813,2013-03-18 18:13:00,
2013-03-18 14:18:00,46.0,43.8,-100.00,SE,124,6.3,6.7,92,-99.99,,,0.00,LWC V2.10 B1813,2013-03-18 18:18:00,
2013-03-18 14:23:00,46.2,44.0,-100.00,SE,138,5.4,8.7,92,-99.99,,,0.00,LWC V2.10 B1813,2013-03-18 18:23:00,
2013-03-18 14:28:00,46.2,44.0,-100.00,SE,136,8.3,8.3,92,-99.99,,,0.00,LWC V2.10 B1813,2013-03-18 18:28:00,
2013-03-18 14:33:00,46.4,44.2,-100.00,ESE,109,5.4,8.7,92,-99.99,,,0.00,LWC V2.10 B1813,2013-03-18 18:33:00,
2013-03-18 14:38:00,46.6,44.4,-100.00,SE,135,5.8,8.7,92,-99.99,,,0.00,LWC V2.10 B1813,2013-03-18 18:38:00,
2013-03-18 14:43:00,46.6,44.4,-100.00,SE,126,8.1,8.1,92,-99.99,,,0.00,LWC V2.10 B1813,2013-03-18 18:43:00,
2013-03-18 14:48:00,46.8,44.6,-100.00,SE,136,5.4,7.2,92,-99.99,,,0.00,LWC V2.10 B1813,2013-03-18 18:48:00,
2013-03-18 14:53:00,46.8,44.3,-100.00,SE,137,11.0,11.0,91,-99.99,,,0.00,LWC V2.10 B1813,2013-03-18 18:53:00,
2013-03-18 14:58:00,46.9,44.5,-100.00,ESE,123,4.9,8.7,91,-99.99,,,0.00,LWC V2.10 B1813,2013-03-18 18:58:00,
2013-03-18 15:03:00,46.9,44.5,-100.00,ESE,122,4.9,7.6,91,-99.99,,,0.00,LWC V2.10 B1813,2013-03-18 19:03:00,
2013-03-18 15:08:00,46.9,44.5,-100.00,SE,124,3.1,7.6,91,-99.99,,,0.00,LWC V2.10 B1813,2013-03-18 19:08:00,
2013-03-18 15:13:00,46.9,44.5,-100.00,ESE,120,8.1,8.1,91,-99.99,,,0.00,LWC V2.10 B1813,2013-03-18 19:13:00,
2013-03-18 15:18:00,47.1,44.6,-100.00,SE,126,4.9,5.8,91,-99.99,,,0.00,LWC V2.10 B1813,2013-03-18 19:18:00,
2013-03-18 15:23:00,47.5,45.0,-100.00,ESE,117,5.4,6.3,91,-99.99,,,0.00,LWC V2.10 B1813,2013-03-18 19:23:00,
2013-03-18 15:28:00,48.0,45.8,-100.00,East,91,4.9,5.8,92,-99.99,,,0.00,LWC V2.10 B1813,2013-03-18 19:28:00,
2013-03-18 15:33:00,48.2,45.7,-100.00,ESE,117,5.4,8.3,91,-99.99,,,0.00,LWC V2.10 B1813,2013-03-18 19:33:00,
2013-03-18 15:38:00,48.4,45.9,-100.00,SE,140,7.6,8.3,91,-99.99,,,0.00,LWC V2.10 B1813,2013-03-18 19:38:00,
2013-03-18 15:43:00,48.6,46.1,-100.00,SE,125,5.4,7.6,91,-99.99,,,0.00,LWC V2.10 B1813,2013-03-18 19:43:00,
2013-03-18 15:48:00,48.7,46.2,-100.00,SE,139,6.3,7.6,91,-99.99,,,0.00,LWC V2.10 B1813,2013-03-18 19:48:00,
2013-03-18 15:53:00,48.7,45.9,-100.00,SE,146,8.3,8.7,90,-99.99,,,0.00,LWC V2.10 B1813,2013-03-18 19:53:00,
2013-03-18 15:58:00,48.9,46.1,-100.00,ESE,112,6.3,8.1,90,-99.99,,,0.00,LWC V2.10 B1813,2013-03-18 19:58:00,
2013-03-18 16:03:00,48.9,46.1,-100.00,SE,143,6.7,8.7,90,-99.99,,,0.00,LWC V2.10 B1813,2013-03-18 20:03:00,
2013-03-18 16:08:00,49.1,46.0,-100.00,SE,130,5.8,7.6,89,-99.99,,,0.00,LWC V2.10 B1813,2013-03-18 20:08:00,
2013-03-18 16:13:00,49.1,46.0,-100.00,SE,146,4.9,6.3,89,-99.99,,,0.00,LWC V2.10 B1813,2013-03-18 20:13:00,
2013-03-18 16:18:00,49.3,46.2,-100.00,SSE,157,5.8,7.6,89,-99.99,,,0.00,LWC V2.10 B1813,2013-03-18 20:18:00,
2013-03-18 16:23:00,49.5,46.4,-100.00,SE,135,7.6,8.3,89,-99.99,,,0.00,LWC V2.10 B1813,2013-03-18 20:23:00,
2013-03-18 16:28:00,49.8,46.7,-100.00,SE,128,8.1,8.1,89,-99.99,,,0.00,LWC V2.10 B1813,2013-03-18 20:28:00,
2013-03-18 16:33:00,50.0,46.9,-100.00,SE,141,4.0,6.3,89,-99.99,,,0.00,LWC V2.10 B1813,2013-03-18 20:33:00,
2013-03-18 16:38:00,50.2,46.8,-100.00,SE,141,8.1,8.1,88,-99.99,,,0.00,LWC V2.10 B1813,2013-03-18 20:38:00,
2013-03-18 16:43:00,50.4,46.9,-100.00,SSE,149,8.7,9.2,88,-99.99,,,0.00,LWC V2.10 B1813,2013-03-18 20:43:00,
2013-03-18 16:48:00,50.7,47.3,-100.00,SE,136,7.2,8.3,88,-99.99,,,0.00,LWC V2.10 B1813,2013-03-18 20:48:00,
2013-03-18 16:53:00,50.9,47.2,-100.00,SE,137,6.3,8.7,87,-99.99,,,0.00,LWC V2.10 B1813,2013-03-18 20:53:00,
2013-03-18 16:58:00,50.9,46.9,-100.00,SE,145,5.8,7.6,86,-99.99,,,0.00,LWC V2.10 B1813,2013-03-18 20:58:00,
2013-03-18 17:03:00,51.1,47.0,-100.00,SSE,152,6.3,11.0,86,-99.99,,,0.00,LWC V2.10 B1813,2013-03-18 21:03:00,
2013-03-18 17:08:00,51.4,47.1,-100.00,SSE,156,5.8,7.6,85,-99.99,,,0.00,LWC V2.10 B1813,2013-03-18 21:08:00,
2013-03-18 17:13:00,51.6,47.3,-100.00,SE,129,8.1,8.7,85,-99.99,,,0.00,LWC V2.10 B1813,2013-03-18 21:13:00,
2013-03-18 17:18:00,51.8,47.1,-100.00,SE,139,7.6,8.7,84,-99.99,,,0.00,LWC V2.10 B1813,2013-03-18 21:18:00,
2013-03-18 17:23:00,52.0,47.0,-100.00,SSE,167,8.1,12.8,83,-99.99,,,0.00,LWC V2.10 B1813,2013-03-18 21:23:00,
2013-03-18 17:28:00,52.0,47.0,-100.00,South,175,5.8,8.7,83,-99.99,,,0.00,LWC V2.10 B1813,2013-03-18 21:28:00,
2013-03-18 17:33:00,52.0,47.0,-100.00,SSE,162,6.3,8.3,83,-99.99,,,0.00,LWC V2.10 B1813,2013-03-18 21:33:00,
2013-03-18 17:38:00,52.0,47.0,-100.00,South,174,8.1,8.7,83,-99.99,,,0.00,LWC V2.10 B1813,2013-03-18 21:38:00,
2013-03-18 17:43:00,52.0,47.0,-100.00,SSE,148,7.6,11.9,83,-99.99,,,0.00,LWC V2.10 B1813,2013-03-18 21:43:00,
2013-03-18 17:48:00,52.0,47.0,-100.00,South,172,5.4,8.7,83,-99.99,,,0.00,LWC V2.10 B1813,2013-03-18 21:48:00,
2013-03-18 17:53:00,52.0,47.3,-100.00,SSW,192,4.0,8.7,84,-99.99,,,0.00,LWC V2.10 B1813,2013-03-18 21:53:00,
2013-03-18 17:58:00,52.0,47.6,-100.00,ESE,102,3.1,8.3,85,-99.99,,,0.00,LWC V2.10 B1813,2013-03-18 21:58:00,
2013-03-18 18:03:00,51.8,47.7,-100.00,SE,138,6.3,12.3,86,-99.99,,,0.00,LWC V2.10 B1813,2013-03-18 22:03:00,
2013-03-18 18:08:00,51.8,47.7,-100.00,SE,143,6.3,10.5,86,-99.99,,,0.00,LWC V2.10 B1813,2013-03-18 22:08:00,
2013-03-18 18:13:00,51.8,48.1,-100.00,SSE,157,7.6,8.1,87,-99.99,,,0.00,LWC V2.10 B1813,2013-03-18 22:13:00,
2013-03-18 18:18:00,52.0,48.5,-100.00,SSE,155,6.3,12.3,88,-99.99,,,0.00,LWC V2.10 B1813,2013-03-18 22:18:00,
2013-03-18 18:23:00,52.0,48.5,-100.00,SSE,156,7.6,11.0,88,-99.99,,,0.00,LWC V2.10 B1813,2013-03-18 22:23:00,
2013-03-18 18:28:00,52.0,48.8,-100.00,SSE,165,10.5,10.5,89,-99.99,,,0.00,LWC V2.10 B1813,2013-03-18 22:28:00,
2013-03-18 18:33:00,52.2,49.0,-100.00,SSE,154,8.1,12.3,89,-99.99,,,0.00,LWC V2.10 B1813,2013-03-18 22:33:00,
2013-03-18 18:38:00,52.2,49.0,-100.00,SSE,166,8.7,11.0,89,-99.99,,,0.00,LWC V2.10 B1813,2013-03-18 22:38:00,
2013-03-18 18:43:00,52.2,49.0,-100.00,South,183,12.8,12.8,89,-99.99,,,0.00,LWC V2.10 B1813,2013-03-18 22:43:00,
2013-03-18 18:48:00,52.3,49.2,-100.00,SSE,167,11.0,13.2,89,-99.99,,,0.00,LWC V2.10 B1813,2013-03-18 22:48:00,
2013-03-18 18:53:00,52.3,48.9,-100.00,SSE,160,10.1,15.0,88,-99.99,,,0.00,LWC V2.10 B1813,2013-03-18 22:53:00,
2013-03-18 18:58:00,52.3,48.9,-100.00,SE,137,10.5,10.5,88,-99.99,,,0.00,LWC V2.10 B1813,2013-03-18 22:58:00,
2013-03-18 19:03:00,52.3,49.2,-100.00,SSE,159,11.0,15.0,89,-99.99,,,0.00,LWC V2.10 B1813,2013-03-18 23:03:00,
2013-03-18 19:08:00,52.3,49.2,-100.00,SSE,166,8.7,11.0,89,-99.99,,,0.00,LWC V2.10 B1813,2013-03-18 23:08:00,
2013-03-18 19:13:00,52.2,49.0,-100.00,South,181,8.1,8.7,89,-99.99,,,0.00,LWC V2.10 B1813,2013-03-18 23:13:00,
2013-03-18 19:18:00,51.4,48.3,-100.00,SSW,198,8.3,8.3,89,-99.99,,,0.00,LWC V2.10 B1813,2013-03-18 23:18:00,
2013-03-18 19:23:00,50.7,47.9,-100.00,South,188,10.5,12.8,90,-99.99,,,0.00,LWC V2.10 B1813,2013-03-18 23:23:00,
2013-03-18 19:28:00,50.4,47.5,-100.00,SW,230,8.3,15.4,90,-99.99,,,0.00,LWC V2.10 B1813,2013-03-18 23:28:00,
2013-03-18 19:33:00,50.2,47.7,-100.00,South,190,5.8,11.0,91,-99.99,,,0.00,LWC V2.10 B1813,2013-03-18 23:33:00,
2013-03-18 19:38:00,50.0,47.5,-100.00,South,184,10.1,10.1,91,-99.99,,,0.00,LWC V2.10 B1813,2013-03-18 23:38:00,
2013-03-18 19:43:00,49.8,47.6,-100.00,South,190,7.6,13.2,92,-99.99,,,0.00,LWC V2.10 B1813,2013-03-18 23:43:00,
2013-03-18 19:48:00,49.6,47.4,-100.00,South,180,10.1,11.0,92,-99.99,,,0.00,LWC V2.10 B1813,2013-03-18 23:48:00,
2013-03-18 19:53:00,49.5,47.2,-100.00,SSW,194,12.8,12.8,92,-99.99,,,0.00,LWC V2.10 B1813,2013-03-18 23:53:00,
2013-03-18 19:58:00,49.3,47.1,-100.00,SE,128,12.3,14.5,92,-99.99,,,0.00,LWC V2.10 B1813,2013-03-18 23:58:00,
2013-03-18 20:03:00,49.3,47.1,-100.00,SSE,158,10.5,12.3,92,-99.99,,,0.00,LWC V2.10 B1813,2013-03-19 00:03:00,
2013-03-18 20:08:00,49.1,46.9,-100.00,SSW,195,8.1,8.1,92,-99.99,,,0.00,LWC V2.10 B1813,2013-03-19 00:08:00,
2013-03-18 20:14:00,48.9,46.7,-100.00,South,183,12.8,12.8,92,-99.99,,,0.00,LWC V2.10 B1813,2013-03-19 00:14:00,
2013-03-18 20:19:00,48.7,46.5,-100.00,South,180,11.9,15.4,92,-99.99,,,0.00,LWC V2.10 B1813,2013-03-19 00:19:00,
2013-03-18 20:24:00,48.7,46.5,-100.00,South,183,8.1,17.4,92,-99.99,,,0.00,LWC V2.10 B1813,2013-03-19 00:24:00,
2013-03-18 20:29:00,48.7,46.5,-100.00,SSW,205,8.7,15.4,92,-99.99,,,0.00,LWC V2.10 B1813,2013-03-19 00:29:00,
2013-03-18 20:34:00,48.6,46.3,-100.00,South,178,12.8,12.8,92,-99.99,,,0.00,LWC V2.10 B1813,2013-03-19 00:34:00,
2013-03-18 20:39:00,48.7,46.2,-100.00,SSW,195,12.8,15.0,91,-99.99,,,0.00,LWC V2.10 B1813,2013-03-19 00:39:00,
2013-03-18 20:44:00,48.7,46.2,-100.00,South,190,8.1,11.9,91,-99.99,,,0.00,LWC V2.10 B1813,2013-03-19 00:44:00,
2013-03-18 20:49:00,48.7,46.2,-100.00,South,189,7.2,8.7,91,-99.99,,,0.00,LWC V2.10 B1813,2013-03-19 00:49:00,
2013-03-18 20:54:00,48.7,45.9,-100.00,SSW,203,8.7,15.0,90,-99.99,,,0.00,LWC V2.10 B1813,2013-03-19 00:54:00,
2013-03-18 20:59:00,48.6,45.8,-100.00,SSW,194,7.6,15.4,90,-99.99,,,0.00,LWC V2.10 B1813,2013-03-19 00:59:00,
2013-03-18 21:04:00,48.6,45.8,-100.00,South,181,8.1,14.1,90,-99.99,,,0.00,LWC V2.10 B1813,2013-03-19 01:04:00,
2013-03-18 21:09:00,48.6,45.8,-100.00,SSE,167,6.3,8.3,90,-99.99,,,0.00,LWC V2.10 B1813,2013-03-19 01:09:00,
2013-03-18 21:14:00,48.4,45.6,-100.00,SSE,160,8.7,12.8,90,-99.99,,,0.00,LWC V2.10 B1813,2013-03-19 01:14:00,
2013-03-18 21:19:00,48.2,45.7,-100.00,SW,218,11.0,11.0,91,-99.99,,,0.00,LWC V2.10 B1813,2013-03-19 01:19:00,
2013-03-18 21:24:00,48.2,45.7,-100.00,South,182,8.3,12.3,91,-99.99,,,0.00,LWC V2.10 B1813,2013-03-19 01:24:00,
2013-03-18 21:29:00,47.8,45.6,-100.00,SSW,206,10.5,14.5,92,-99.99,,,0.00,LWC V2.10 B1813,2013-03-19 01:29:00,
2013-03-18 21:34:00,47.7,45.5,-100.00,South,181,8.3,10.5,92,-99.99,,,0.00,LWC V2.10 B1813,2013-03-19 01:34:00,
2013-03-18 21:39:00,47.5,45.3,-100.00,South,185,7.6,10.5,92,-99.99,,,0.00,LWC V2.10 B1813,2013-03-19 01:39:00,
2013-03-18 21:44:00,47.3,45.1,-100.00,South,191,11.0,13.2,92,-99.99,,,0.00,LWC V2.10 B1813,2013-03-19 01:44:00,
2013-03-18 21:49:00,47.1,44.6,-100.00,SSW,203,8.7,12.8,91,-99.99,,,0.00,LWC V2.10 B1813,2013-03-19 01:49:00,
2013-03-18 21:54:00,46.9,44.5,-100.00,SSW,200,8.7,8.7,91,-99.99,,,0.00,LWC V2.10 B1813,2013-03-19 01:54:00,
2013-03-18 21:59:00,46.8,44.3,-100.00,South,179,8.7,12.8,91,-99.99,,,0.00,LWC V2.10 B1813,2013-03-19 01:59:00,
2013-03-18 22:04:00,46.6,44.1,-100.00,South,180,6.3,11.0,91,-99.99,,,0.00,LWC V2.10 B1813,2013-03-19 02:04:00,
2013-03-18 22:09:00,46.2,44.0,-100.00,SSW,200,11.4,13.2,92,-99.99,,,0.00,LWC V2.10 B1813,2013-03-19 02:09:00,
2013-03-18 22:14:00,45.3,42.8,-100.00,SSW,204,10.5,12.8,91,-99.99,,,0.00,LWC V2.10 B1813,2013-03-19 02:14:00,
2013-03-18 22:19:00,44.8,41.4,-100.00,SSW,212,16.8,17.4,88,-99.99,,,0.00,LWC V2.10 B1813,2013-03-19 02:19:00,
2013-03-18 22:24:00,44.6,40.4,-100.00,West,261,15.0,20.6,85,-99.99,,,0.00,LWC V2.10 B1813,2013-03-19 02:24:00,
2013-03-18 22:29:00,44.2,39.7,-100.00,West,268,9.2,19.2,84,-99.99,,,0.00,LWC V2.10 B1813,2013-03-19 02:29:00,
2013-03-18 22:34:00,44.1,39.5,-100.00,West,278,13.2,14.1,84,-99.99,,,0.00,LWC V2.10 B1813,2013-03-19 02:34:00,
2013-03-18 22:39:00,43.7,39.2,-100.00,West,260,15.9,15.9,84,-99.99,,,0.00,LWC V2.10 B1813,2013-03-19 02:39:00,
2013-03-18 22:44:00,43.3,38.8,-100.00,SW,214,7.6,17.9,84,-99.99,,,0.00,LWC V2.10 B1813,2013-03-19 02:44:00,
2013-03-18 22:49:00,43.0,38.8,-100.00,SW,215,8.3,11.0,85,-99.99,,,0.00,LWC V2.10 B1813,2013-03-19 02:49:00,
2013-03-18 22:54:00,43.0,38.8,-100.00,SSE,159,14.5,17.4,85,-99.99,,,0.00,LWC V2.10 B1813,2013-03-19 02:54:00,
2013-03-18 22:59:00,42.8,38.6,-100.00,SSW,208,12.8,15.0,85,-99.99,,,0.00,LWC V2.10 B1813,2013-03-19 02:59:00,
2013-03-18 23:04:00,42.8,38.3,-100.00,South,181,3.1,10.5,84,-99.99,,,0.00,LWC V2.10 B1813,2013-03-19 03:04:00,
2013-03-18 23:09:00,42.8,37.4,-100.00,South,184,8.7,10.5,81,-99.99,,,0.00,LWC V2.10 B1813,2013-03-19 03:09:00,
2013-03-18 23:14:00,42.8,37.4,-100.00,SW,236,6.3,12.8,81,-99.99,,,0.00,LWC V2.10 B1813,2013-03-19 03:14:00,
2013-03-18 23:19:00,42.6,37.5,-100.00,SW,226,8.7,9.6,82,-99.99,,,0.00,LWC V2.10 B1813,2013-03-19 03:19:00,
2013-03-18 23:24:00,42.4,37.3,-100.00,SSW,197,8.1,12.8,82,-99.99,,,0.00,LWC V2.10 B1813,2013-03-19 03:24:00,
2013-03-18 23:29:00,42.3,37.5,-100.00,South,186,5.4,16.3,83,-99.99,,,0.00,LWC V2.10 B1813,2013-03-19 03:29:00,
2013-03-18 23:34:00,42.3,37.5,-100.00,SW,223,11.0,11.0,83,-99.99,,,0.00,LWC V2.10 B1813,2013-03-19 03:34:00,
2013-03-18 23:39:00,42.1,37.3,-100.00,SSW,207,9.6,14.5,83,-99.99,,,0.00,LWC V2.10 B1813,2013-03-19 03:39:00,
2013-03-18 23:44:00,42.4,35.4,-100.00,South,170,8.7,19.7,76,-99.99,,,0.00,LWC V2.10 B1813,2013-03-19 03:44:00,
2013-03-18 23:49:00,42.1,34.7,-100.00,SW,227,19.2,19.2,75,-99.99,,,0.00,LWC V2.10 B1813,2013-03-19 03:49:00,
2013-03-18 23:54:00,42.1,33.7,-100.00,WNW,287,17.4,21.9,72,-99.99,,,0.00,LWC V2.10 B1813,2013-03-19 03:54:00,
2013-03-18 23:59:00,41.9,34.2,-100.00,South,177,12.8,12.8,74,-99.99,,,0.00,LWC V2.10 B1813,2013-03-19 03:59:00,